Вернуться в каталог

SL-12 DEB

LostHEO
NORAD 29463·DEBRIS·🇷🇺 Russia

Запущен May 31, 1989 с Baikonur Cosmodrome

Loading…

Ближайшие Пролёты (ближайшие 24 часа)

TLE

УстаревшееSource: Space-Track

Эпоха: Mar 21, 2026, 12:17 UTC

1 29463U 89039DH  26080.51210798 -.00000011  00000-0  00000-0 0  9995
2 29463  64.0275 175.4791 2611340  87.1976 302.1375  7.12752259 20439

Отслеживайте SL-12 DEB в реальном времени с AllMySat

Download on the App Store